Simultaneous Nadir Overpasses (SNOs) Predictions

Prediction of SNOs between AQUA and METOP-A Satellite Orbit:

Table of predicted SNOs for the next 14.0 days since TLE Epoch: 8/21/2015
Index Date (AQUA) Time (AQUA) Lat,Lon (AQUA) SZA (AQUA ) Date (METOP-A) Time (METOP-A) Lat,Lon (METOP-A) SZA (METOP-A ) Distance(km) Time Diff (sec)
1 08/23/2015 20:33:49 -73.91, 45.66 117.40 08/23/2015 20:33:01 -73.89, 45.64 117.41 2.43 48
2 08/23/2015 21:23:17 73.96,-146.81 62.67 08/23/2015 21:23:39 73.97,-146.84 62.68 1.33 22
3 08/26/2015 16:08:03 -73.94, 112.05 116.41 08/26/2015 16:07:22 -73.91, 112.08 116.43 3.32 41
4 08/26/2015 16:57:31 73.99, -80.44 63.67 08/26/2015 16:58:00 73.98, -80.40 63.66 1.32 29
5 08/29/2015 11:42:15 -73.92, 178.52 115.44 08/29/2015 11:41:42 -73.92, 178.52 115.43 0.12 33
6 08/29/2015 12:31:43 73.98, -13.97 64.64 08/29/2015 12:32:20 74.00, -13.97 64.65 1.81 37
7 09/01/2015 07:16:28 -73.92,-115.03 114.44 09/01/2015 07:16:03 -73.93,-115.05 114.42 1.72 25
8 09/01/2015 08:05:56 73.98, 52.46 65.64 09/01/2015 08:06:41 74.01, 52.46 65.66 2.71 45
9 09/04/2015 02:01:02 73.27, 145.17 65.88 09/04/2015 01:59:56 73.24, 142.42 65.95 88.03 66
10 09/04/2015 02:50:41 -73.93, -48.61 113.41 09/04/2015 02:50:24 -73.94, -48.63 113.39 1.48 17
11 09/04/2015 03:40:09 74.00, 118.88 66.68 09/04/2015 03:41:02 74.02, 118.88 66.69 2.01 53




NCC Satellite Simultaneous Nadir Overpasses (SNOs) Prediction Service
